Flag for U.S.A. Weather past 2 weeks in Corpus Christi, Texas, U.S.A.

Now
77 °F

Broken clouds.


Feels Like: 79 °F
Forecast: 68 / 78 °F
Wind: 10 mph from South

Location: Corpus Christi International Airport

Current Time: Mar 31, 2015 at 1:18:05 PM

Latest Report: Mar 31, 2015 at 12:51 PM


Visibility: 10 mi

Pressure: 30.04 "Hg

Humidity: 74%

Dew point: 68 °F

Location of Corpus ChristiLocation

Historic Weather in Corpus Christi — Graph

°F

Corpus Christi temperature yesterday

Maximum temperature yesterday: 79 °F (at 3:51 PM)
Minimum temperature yesterday: 66 °F (at 2:51 AM)
Average temperature yesterday: 71 °F

Past Weeks' High & Low Weather Summary

 TemperatureHumidityPressure
High80 °F (Mar 28, 2:51 PM)100% (Mar 17, 4:51 AM)30.25 "Hg (Mar 17, 4:51 AM)
Low48 °F (Mar 27, 7:51 AM)26% (Mar 27, 4:51 PM)29.81 "Hg (Mar 26, 4:51 AM)
Average68 °F84%30.04 "Hg
* Reported Mar 16 11:51 AM — Mar 31 11:51 AM, Corpus Christi, Weather by CustomWeather, © 2015

Note: Actual official high and low records may vary slightly from our data, if they occured in-between our weather recording intervals... More about our weather records

Advertising

Corpus Christi weather history for previous 24 hours

 ConditionsComfort  
Time TempWeatherWind HumidityBarometerVisibility
11:51 AM
Tue, Mar 31
76 °FCloudy.15 mph77%30.07 "Hg10 mi
10:51 AM73 °FCloudy.16 mph84%30.08 "Hg10 mi
9:51 AM70 °FCloudy.12 mph93%30.07 "Hg8 mi
9:00 AM68 °FFog.10 mph96%30.06 "Hg2 mi
7:51 AM66 °FFog.5 mph96%30.05 "Hg2 mi
6:51 AM65 °FFog.6 mph97%30.04 "Hg4 mi
5:51 AM65 °FFog.3 mph97%30.03 "Hg5 mi
4:51 AM66 °FLow clouds.6 mph96%30.03 "Hg8 mi
3:51 AM66 °FOvercast.7 mph93%30.04 "Hg8 mi
2:51 AM65 °FPassing clouds.7 mph97%30.05 "Hg10 mi
1:51 AM66 °FPassing clouds.9 mph96%30.07 "Hg10 mi
12:51 AM67 °FPassing clouds.10 mph93%30.09 "Hg10 mi
11:51 PM
Mon, Mar 30
68 °FPassing clouds.12 mph93%30.10 "Hg10 mi
10:51 PM69 °FPassing clouds.14 mph90%30.10 "Hg10 mi
9:51 PM70 °FPassing clouds.15 mph87%30.10 "Hg10 mi
8:51 PM70 °FPassing clouds.16 mph87%30.08 "Hg10 mi
7:51 PM72 °FPassing clouds.16 mph81%30.07 "Hg10 mi
6:51 PM74 °FScattered clouds.23 mph74%30.07 "Hg10 mi
5:51 PM77 °FScattered clouds.22 mph66%30.06 "Hg10 mi
4:51 PM79 °FScattered clouds.20 mph65%30.07 "Hg10 mi
3:51 PM79 °FBroken clouds.22 mph67%30.09 "Hg10 mi
2:51 PM78 °FMore clouds than sun.22 mph69%30.12 "Hg10 mi
1:51 PM76 °FMore clouds than sun.20 mph74%30.15 "Hg10 mi
Weather by CustomWeather, © 2015

See weather overviewHow to use our weather pages